EHI
6 6 6 5 3 1 0 0 1 3 3 1 0 0 1 0 0 0 0 0 0 0 0 0 0 0 0 0 0 0 0 0 1 1 1 0 0 0
6 6 5 5 3 1 1 1 2 3 3 2 1 1 1 1 1 0 0 0 0 0 0 0 0 0 0 0 0 0 0 0 0 0 0 0 0 0
4 5 5 5 3 3 2 3 3 3 4 3 2 2 2 2 1 1 1 0 0 0 0 0 0 0 0 0 0 0 0 0 0 0 0 0 0 0
5 5 5 4 3 3 3 4 3 4 4 4 4 3 3 2 1 1 1 0 0 0 0 0 0 0 0 0 0 0 0 0 0 0 0 0 0 0
7 7 5 5 4 3 4 5 4 5 5 6 5 4 4 3 1 0 0 0 0 0 0 0 0 0 0 0 0 0 0 0 0 0 0 0 0 0
9 8 7 7 6 5 4 5 6 7 7 7 6 6 5 3 1 0 0 0 0 1 0 0 0 0 0 0 0 0 0 0 0 0 0 0 0 0
10 10 10 10 9 5 3 4 6 8 9 8 7 6 4 3 2 1 0 0 0 0 0 0 0 0 0 0 0 0 0 0 0 0 0 0 0 0
12 11 11 10 8 4 2 3 4 5 8 7 5 5 4 3 2 1 0 0 0 0 0 0 0 0 0 0 0 0 0 0 0 0 0 0 0 0
13 12 10 8 5 3 2 2 1 2 4 4 3 3 2 1 1 0 0 0 0 0 0 0 0 0 0 0 0 0 0 0 0 0 0 0 0 0
8 10 9 6 3 3 3 2 1 0 1 1 1 1 1 0 0 0 0 0 0 0 0 0 0 0 0 0 0 0 0 0 0 0 0 0 0 0
3 6 7 5 3 3 3 3 2 1 0 0 0 0 0 0 0 0 0 0 0 0 0 0 0 0 0 0 0 0 0 0 0 0 0 0 0 0
1 3 4 4 2 2 2 3 3 1 0 0 0 0 0 0 0 0 0 0 0 0 0 0 0 0 0 0 0 0 0 0 0 0 0 0 0 0
1 2 2 1 1 0 1 2 2 2 1 0 0 0 0 0 0 0 0 0 0 0 0 0 0 0 0 0 0 0 0 0 0 0 0 0 0 0
3 3 2 0 0 0 0 1 1 2 2 1 1 1 0 0 0 0 0 0 0 0 0 0 0 0 0 0 0 0 0 0 0 0 0 0 0 0
2 2 1 0 0 0 0 0 1 3 3 3 2 1 0 0 0 0 0 0 0 0 0 0 0 0 0 0 0 0 0 0 0 0 0 0 0 0
1 1 0 0 0 0 0 0 2 3 3 2 2 1 0 0 0 0 0 0 0 0 0 0 0 0 0 0 0 0 0 0 0 0 0 0 0 0
1 1 1 1 1 1 2 2 2 2 2 1 1 0 0 0 0 0 0 0 0 0 0 0 0 0 0 0 0 0 0 0 0 0 0 0 0 0
2 2 2 2 3 4 5 4 4 3 2 1 0 0 0 0 0 0 0 0 0 0 0 0 0 0 0 0 0 0 0 0 0 0 0 0 0 0
3 3 3 3 4 5 6 6 5 4 3 1 0 0 0 0 0 0 0 0 0 0 0 0 0 0 0 0 0 0 0 0 0 0 0 0 0 0
3 3 3 3 3 4 5 6 6 5 4 2 1 0 0 0 0 0 0 0 0 0 0 0 0 0 0 0 0 0 0 0 0 0 0 0 0 0
2 3 3 3 4 4 4 5 6 5 4 2 1 0 0 0 0 0 0 0 0 0 0 0 0 0 0 0 0 0 0 0 0 0 0 0 0 0
3 3 3 4 5 5 4 5 5 4 3 3 1 1 0 0 0 0 0 0 0 0 0 0 0 0 0 0 0 0 0 0 0 0 0 0 0 0
3 3 4 5 6 6 6 5 5 4 3 3 2 2 1 0 0 0 0 0 0 0 0 0 0 0 0 0 0 0 0 0 0 0 0 0 0 0
Wind_Speed
4 3 2 2 2 2 2 3 3 2 3 3 2 2 1 2 3 2 3 6 7 7 7 7 6 6 5 5 4 3 3 3 3 3 4 4 5 5
3 3 3 2 2 2 2 2 2 3 3 3 2 2 1 1 3 2 3 5 7 7 7 7 7 6 6 5 4 4 3 3 3 3 3 4 4 4
4 3 4 3 2 2 1 1 1 2 2 3 2 1 0 1 1 1 2 2 3 6 7 6 6 6 6 5 5 4 4 4 4 3 3 3 3 4
5 4 4 3 3 3 2 2 2 2 2 3 2 1 1 1 1 2 2 2 2 5 6 6 6 6 6 5 5 5 4 4 4 3 3 3 3 4
5 5 5 4 4 3 3 2 2 1 2 2 2 1 1 0 0 1 1 0 1 2 4 4 5 5 5 5 5 5 5 5 4 4 4 4 4 4
5 6 6 5 5 4 3 3 2 1 1 1 1 1 1 1 1 0 1 1 1 1 2 2 3 4 5 5 5 5 5 5 4 4 4 4 4 4
5 5 6 6 6 5 3 3 2 2 1 1 1 1 1 1 1 1 1 1 2 1 1 1 1 1 3 4 5 6 6 5 5 5 5 5 5 4
6 5 6 5 5 5 5 5 5 4 3 2 2 2 3 2 2 2 1 0 2 1 1 2 1 2 2 3 5 7 7 6 6 5 5 4 4 4
6 5 5 4 5 3 3 3 3 5 6 5 4 4 4 4 3 2 2 2 3 3 1 2 1 2 3 4 7 7 7 7 6 6 5 4 4 4
5 6 6 5 4 4 3 2 2 3 3 3 4 5 5 4 4 4 3 2 1 2 2 2 2 2 2 2 5 7 6 6 6 6 5 5 4 4
5 5 5 5 7 6 4 3 2 3 3 3 4 4 5 5 4 2 1 1 1 2 1 2 2 1 1 2 3 5 6 6 6 6 5 5 5 4
3 4 6 7 7 7 6 5 4 4 2 2 2 3 2 2 4 4 4 3 2 2 2 2 1 0 1 2 2 2 2 5 6 6 6 6 5 2
3 3 3 6 8 8 7 6 7 5 3 2 2 2 1 1 2 2 3 4 4 4 3 3 2 1 2 2 2 2 1 2 2 3 4 5 5 4
4 3 3 5 6 7 6 6 6 4 2 2 1 2 2 2 2 2 2 2 3 4 4 3 3 3 2 2 2 2 1 2 2 2 2 2 3 5
3 4 4 5 4 4 6 6 5 3 3 3 3 3 3 2 1 0 1 1 1 1 1 2 2 2 3 3 3 2 1 2 2 2 2 2 2 2
2 2 2 3 2 2 2 2 3 3 4 4 3 2 1 0 1 0 0 0 1 2 3 1 2 2 2 3 3 2 2 2 2 2 2 2 2 2
2 1 1 1 1 1 1 1 2 2 2 2 2 2 1 1 0 0 0 1 0 1 2 3 1 0 2 2 2 2 2 2 2 2 2 2 2 3
3 2 2 3 3 3 3 2 2 2 2 2 2 3 2 2 1 0 1 1 0 1 1 1 1 2 2 2 2 2 1 2 1 1 1 1 2 3
3 3 3 3 3 3 3 3 2 2 2 2 2 2 2 2 2 1 1 1 0 0 1 1 1 1 0 2 4 1 2 1 1 1 2 2 3 3
3 4 3 3 3 3 3 3 3 2 2 2 2 2 2 2 2 2 2 2 1 0 0 1 0 1 2 3 3 3 2 1 1 1 2 1 2 3
4 4 4 3 4 4 4 4 3 3 3 3 2 3 3 3 2 2 2 2 1 1 1 2 3 3 1 1 1 3 3 2 2 2 2 1 2 2
4 4 4 4 4 4 4 4 3 3 3 3 3 3 3 3 3 3 3 2 2 2 2 2 1 1 0 0 1 3 3 3 3 4 4 4 3 3
4 4 3 4 4 3 3 4 4 4 4 4 3 3 3 2 2 2 3 2 2 1 1 1 1 1 1 1 2 2 3 3 2 2 4 5 6 8
Wind_Direction
233 233 231 240 225 218 205 185 181 238 275 273 276 272 233 206 205 194 196 204 204 203 202 206 208 208 207 208 214 225 236 246 256 264 269 275 279 284
236 240 248 245 241 233 220 206 188 190 240 261 250 266 250 221 199 197 210 203 201 201 204 205 205 208 210 212 215 221 231 239 249 257 265 271 276 283
246 236 246 243 240 241 232 216 203 180 225 270 263 292 286 261 243 229 214 200 202 204 208 209 208 209 211 214 218 222 227 233 239 247 258 264 272 281
242 240 247 246 240 240 226 229 225 203 198 249 276 287 268 236 214 217 220 204 203 207 206 208 207 211 213 216 220 221 224 230 234 241 252 264 272 275
231 233 242 236 239 238 226 231 232 224 192 207 256 274 276 236 66 279 247 266 218 209 203 202 205 211 215 220 219 219 224 229 231 235 246 261 271 280
227 229 232 226 230 230 228 228 221 219 207 208 247 276 279 284 142 216 312 308 269 239 225 210 213 219 222 222 219 219 223 226 230 239 246 252 261 271
232 232 233 227 229 225 222 208 196 200 207 218 240 256 269 261 225 216 238 285 289 230 224 252 226 232 228 224 220 220 221 224 229 236 244 250 255 262
232 236 237 232 234 227 225 210 193 197 206 209 224 232 241 231 220 209 197 211 279 251 164 258 204 233 236 222 222 222 223 226 232 236 240 243 250 254
228 229 238 232 214 209 222 228 234 230 208 199 215 227 222 217 199 215 222 216 237 236 167 257 241 242 244 234 223 223 227 232 234 236 239 245 254 250
227 223 222 224 216 193 194 214 245 255 240 218 216 228 226 215 199 200 208 221 277 269 172 217 248 244 251 249 231 226 232 238 238 238 241 241 240 244
238 228 212 217 225 203 185 204 240 268 273 246 236 238 235 222 199 158 166 156 264 273 227 179 243 267 275 264 257 236 239 243 242 239 239 239 236 237
252 243 226 218 219 206 191 193 216 239 247 292 293 289 263 235 212 188 184 188 211 249 234 173 215 187 297 277 266 258 247 253 251 248 243 240 231 214
242 247 242 226 219 216 205 202 215 213 207 219 248 277 286 258 233 216 199 189 201 234 220 173 189 196 210 266 289 267 249 256 250 255 247 242 229 203
230 236 241 234 224 216 212 217 212 197 183 191 210 237 248 254 256 247 236 228 224 231 220 187 194 197 196 233 262 272 271 264 241 239 232 231 234 233
235 237 237 226 219 219 220 210 192 185 183 192 212 229 234 232 233 289 338 344 342 300 233 200 194 203 193 209 233 234 256 269 235 227 230 220 220 217
263 251 230 216 208 210 206 206 201 194 191 196 204 218 232 199 193 163 213 348 10 330 322 278 195 182 216 226 214 231 225 232 242 230 223 235 237 220
171 149 147 163 196 208 220 219 218 215 209 202 189 193 201 189 211 28 82 69 69 308 323 337 340 313 215 204 215 237 230 235 229 216 207 243 253 234
156 177 199 204 208 205 203 210 213 222 217 198 188 186 185 185 182 96 99 107 106 286 294 315 4 18 11 339 241 215 224 236 249 229 193 214 263 261
176 203 209 210 214 206 197 195 210 218 199 185 189 186 175 175 175 178 167 146 160 247 287 319 41 81 1 301 301 262 203 239 238 246 228 218 242 259
207 212 213 208 206 207 206 203 199 189 180 193 198 186 178 175 174 185 190 186 189 201 296 315 272 217 221 242 264 287 268 224 229 244 249 252 265 281
218 220 215 206 208 210 212 204 191 186 186 186 192 192 186 178 188 194 196 193 182 192 221 246 253 269 271 52 341 308 302 284 246 240 231 243 283 291
216 216 216 215 211 208 207 197 191 191 189 188 189 188 188 183 187 192 193 195 210 214 233 254 277 316 55 191 260 284 299 311 316 304 262 224 209 221
218 215 212 214 215 206 201 198 193 195 192 185 188 186 184 186 196 195 196 193 195 210 234 275 307 309 260 236 249 271 286 294 308 327 314 297 261 253